Zurück zum Katalog

CHUANG XIN 1-03

AktivKommunikationSSO
NORAD 37930·PAYLOAD·🇨🇳 China

Gestartet Nov 20, 2011 von Jiuquan Satellite Launch Center

Loading…

Nächste Überflüge (nächste 24 Stunden)

TLE

AktuellSource: Space-Track

Epoche: Sep 14, 2026, 15:28 UTC

1 37930U 11068A   26257.64504808 -.00000171  00000-0 -48434-4 0  9993
2 37930  98.6974 275.2687 0014225 210.8036 287.9740 14.30552985773442

Verfolge CHUANG XIN 1-03 in Echtzeit mit AllMySat

Download on the App Store